Home > Time Zones > World Clock > Weather > France > Metz > Past weeks

Flag for France Weather past 2 weeks in Metz, France

Now
79 °F

Clear.


Feels Like: 79 °F
Forecast: 55 / 78 °F
Wind: 9 mph from Northwest

Location: Metz-Nancy-Lorraine

Current Time: Jul 25, 2014 at 6:19:18 PM

Latest Report: Jul 25, 2014 at 6:00 PM


Visibility: N/A

Pressure: 29.89 "Hg

Humidity: 45%

Dew point: 55 °F

Location of MetzLocation

Historic Weather in Metz — Graph

°F

Metz temperature yesterday

Maximum temperature yesterday: 82 °F (at 2:00 PM)
Minimum temperature yesterday: 63 °F (at 5:00 AM)
Average temperature yesterday: 72 °F

Past Weeks' High & Low Weather Summary

 TemperatureHumidityPressure
High91 °F (Jul 18, 3:00 PM)100% (Jul 11, 5:00 AM)30.18 "Hg (Jul 11, 5:00 AM)
Low57 °F (Jul 15, 5:00 AM)30% (Jul 18, 6:30 PM)29.80 "Hg (Jul 20, 5:00 AM)
Average70 °F69%29.99 "Hg
* Reported Jul 10 5:00 PM — Jul 25 5:00 PM, Metz, Weather by CustomWeather, © 2014

Note: Actual official high and low records may vary slightly from our data, if they occured in-between our weather recording intervals... More about our weather records

Advertising

Metz weather history for previous 24 hours

 ConditionsComfort  
Time TempWeatherWind HumidityBarometerVisibility
5:00 PM
Jul 25
79 °FClear.3 mph45%29.86 "HgN/A
4:30 PM79 °FClear.2 mph48%29.86 "HgN/A
4:00 PM79 °FClear.3 mph45%29.89 "HgN/A
3:30 PM77 °FClear.6 mph47%29.89 "HgN/A
3:00 PM79 °FClear.5 mph48%29.89 "HgN/A
2:30 PM79 °FPassing clouds.5 mph48%29.89 "HgN/A
2:00 PM77 °FClear.3 mph51%29.89 "HgN/A
1:30 PM75 °FClear.3 mph57%29.92 "HgN/A
1:00 PM73 °FPassing clouds.5 mph61%29.92 "HgN/A
12:30 PM73 °FPassing clouds.7 mph61%29.92 "HgN/A
12:00 PM73 °FPassing clouds.8 mph65%29.92 "HgN/A
11:30 AM73 °FClear.7 mph65%29.92 "HgN/A
11:00 AM72 °FClear.3 mph65%29.92 "HgN/A
10:30 AM70 °FClear.5 mph69%29.92 "HgN/A
10:00 AM68 °FClear.6 mph73%29.92 "HgN/A
9:30 AM66 °FClear.7 mph78%29.92 "HgN/A
9:00 AM66 °FClear.5 mph73%29.92 "HgN/A
8:30 AM63 °FClear.3 mph83%29.95 "HgN/A
8:00 AM61 °FClear.5 mph88%29.92 "HgN/A
7:30 AM59 °FClear.3 mph88%29.92 "HgN/A
7:00 AM59 °FClear.5 mph88%29.92 "HgN/A
6:30 AM57 °FClear.6 mph94%29.92 "HgN/A
6:00 AM57 °FClear.5 mph94%29.92 "Hg6 mi
5:30 AM57 °FClear.6 mph94%29.92 "HgN/A
5:00 AM57 °FClear.3 mph94%29.92 "HgN/A
4:30 AM59 °FClear.6 mph88%29.92 "HgN/A
4:00 AM59 °FClear.5 mph88%29.92 "HgN/A
3:30 AM59 °FClear.6 mph88%29.92 "HgN/A
3:00 AM59 °FClear.2 mph88%29.92 "HgN/A
2:30 AM61 °FClear.3 mph77%29.95 "HgN/A
2:00 AM61 °FClear.3 mph83%29.95 "HgN/A
1:30 AM61 °FClear.3 mph83%29.95 "HgN/A
1:00 AM61 °FClear.6 mph83%29.95 "HgN/A
12:30 AM61 °FClear.3 mph83%29.95 "HgN/A
12:00 AM63 °FClear.5 mph77%29.95 "HgN/A
11:30 PM
Jul 24
63 °FClear.9 mph77%29.95 "HgN/A
11:00 PM63 °FClear.10 mph77%29.95 "HgN/A
10:30 PM63 °FClear.12 mph77%29.95 "HgN/A
10:00 PM64 °FClear.10 mph73%29.92 "HgN/A
9:30 PM66 °FMild.5 mph68%29.95 "HgN/A
9:00 PM66 °FThundershowers. Mostly cloudy.13 mph73%29.92 "HgN/A
8:30 PM66 °FThundershowers. Mostly cloudy.24 mph78%29.92 "Hg4 mi
8:00 PM79 °FThundershowers. Cloudy.6 mph42%29.89 "HgN/A
7:30 PM79 °FPleasantly warm.8 mph39%29.89 "HgN/A
7:00 PM81 °FPleasantly warm.8 mph37%29.89 "HgN/A
6:30 PM81 °FClear.8 mph39%29.86 "HgN/A
6:00 PM81 °FPleasantly warm.3 mph39%29.89 "HgN/A
Weather by CustomWeather, © 2014

See weather overviewHow to use our weather pages